COSMOS 2302

导读

COSMOS 2302(宇宙2302)是独联体(CIS)发射的军用卫星,隶属于苏联/俄罗斯经典的“宇宙”卫星系列,1994年12月26日北京时间8时成功发射入轨。宇宙系列卫星多承担军事侦察、电子情报搜集或空间技术试验任务,该卫星具体任务细节未完全公开,作为独联体成立后早期发射的军事卫星,它延续了苏联航天军事应用脉络,目前已完成服役使命,成为轨道上的废弃航天器。

Basic Information
目录编号:
23444
目录名称:
COSMOS 2302
国际标识:
1994-086D
轨道中心:
EARTH
卫星名称:
COSMOS 2302
卫星全名:
--
卫星状态:
在轨 (已飞行11585 天)
发射日期:
1994-12-26 UTC
国别 :
俄罗斯(独联体) (CIS)
星等 :
--
This satellite is enrolled in the Space Conjunction Data Service (SCDS) and the current flight risk assessment level is: No High Risk
Orbit Information
数据来源 国际轨道数据 AOE轨道数据
星历时间 2026-09-13T16:11:25+0800
20小时前
查看轨道信息
2026-09-12T23:00:00+0800
1天前
查看轨道信息
半长轴 7795.825km 7795.839km
偏心率 0.0006891 0.0007963
轨道倾角 82.560° 82.558°
近地点辐角 354.590° 355.569°
升交点赤经 271.050° 271.508°
平近点角 21.041° 9.403°
近地点 1412.315km 1411.494km
远地点 1423.061km 1423.91km
周期 114.170分钟 114.171分钟
每日圈数 12.612747 12.612712
Detailed Information
使用方式:
暂无
2D Orbit Map
3D Orbit Map
Orbit Altitude Analysis Chart
Orbit Inclination Analysis Chart
Orbit Comprehensive Analysis Chart
View Comprehensive Chart
Miss Distance Evolution Trend with All Objects Subscribe to Flight Safety Assessment
Collision Probability Evolution Trend with All Objects Subscribe to Flight Safety Assessment